Year,Month,Day,Hour,Minute,Value (Times are PST for temperature in C)
2015,04,07,00,00,3.60
2015,04,07,00,01,3.60
2015,04,07,00,02,3.60
2015,04,07,00,03,3.60
2015,04,07,00,04,3.50
2015,04,07,00,05,3.50
2015,04,07,00,06,3.50
2015,04,07,00,07,3.50
2015,04,07,00,08,3.40
2015,04,07,00,09,3.40
2015,04,07,00,10,3.40
2015,04,07,00,11,3.40
2015,04,07,00,12,3.40
2015,04,07,00,13,3.40
2015,04,07,00,14,3.40
2015,04,07,00,15,3.40
2015,04,07,00,16,3.40
2015,04,07,00,17,3.30
2015,04,07,00,18,3.30
2015,04,07,00,19,3.30
2015,04,07,00,20,3.30
2015,04,07,00,21,3.30
2015,04,07,00,22,3.30
2015,04,07,00,23,3.30
2015,04,07,00,24,3.30
2015,04,07,00,25,3.20
2015,04,07,00,26,3.20
2015,04,07,00,27,3.20
2015,04,07,00,28,3.20
2015,04,07,00,29,3.20
2015,04,07,00,30,3.20
2015,04,07,00,31,3.20
2015,04,07,00,32,3.10
2015,04,07,00,33,3.10
2015,04,07,00,34,3.10
2015,04,07,00,35,3.10
2015,04,07,00,36,3.10
2015,04,07,00,37,3.10
2015,04,07,00,38,3.10
2015,04,07,00,39,3.10
2015,04,07,00,40,3.10
2015,04,07,00,41,3.00
2015,04,07,00,42,3.00
2015,04,07,00,43,3.00
2015,04,07,00,44,3.00
2015,04,07,00,45,3.00
2015,04,07,00,46,3.00
2015,04,07,00,47,2.90
2015,04,07,00,48,2.90
2015,04,07,00,49,2.90
2015,04,07,00,50,2.90
2015,04,07,00,51,2.90
2015,04,07,00,52,2.80
2015,04,07,00,53,2.80
2015,04,07,00,54,2.80
2015,04,07,00,55,2.80
2015,04,07,00,56,2.80
2015,04,07,00,57,2.80
2015,04,07,00,58,2.70
2015,04,07,00,59,2.70
2015,04,07,01,00,2.70
2015,04,07,01,01,2.70
2015,04,07,01,02,2.60
2015,04,07,01,03,2.60
2015,04,07,01,04,2.60
2015,04,07,01,05,2.60
2015,04,07,01,06,2.50
2015,04,07,01,07,2.50
2015,04,07,01,08,2.50
2015,04,07,01,09,2.50
2015,04,07,01,10,2.40
2015,04,07,01,11,2.40
2015,04,07,01,12,2.40
2015,04,07,01,13,2.40
2015,04,07,01,14,2.40
2015,04,07,01,15,2.40
2015,04,07,01,16,2.40
2015,04,07,01,17,2.40
2015,04,07,01,18,2.40
2015,04,07,01,19,2.40
2015,04,07,01,20,2.40
2015,04,07,01,21,2.40
2015,04,07,01,22,2.40
2015,04,07,01,23,2.40
2015,04,07,01,24,2.40
2015,04,07,01,25,2.40
2015,04,07,01,26,2.30
2015,04,07,01,27,2.30
2015,04,07,01,28,2.30
2015,04,07,01,29,2.30
2015,04,07,01,30,2.30
2015,04,07,01,31,2.30
2015,04,07,01,32,2.30
2015,04,07,01,33,2.30
2015,04,07,01,34,2.20
2015,04,07,01,35,2.20
2015,04,07,01,36,2.20
2015,04,07,01,37,2.20
2015,04,07,01,38,2.20
2015,04,07,01,39,2.20
2015,04,07,01,40,2.20
2015,04,07,01,41,2.20
2015,04,07,01,42,2.20
2015,04,07,01,43,2.20
2015,04,07,01,44,2.20
2015,04,07,01,45,2.20
2015,04,07,01,46,2.20
2015,04,07,01,47,2.20
2015,04,07,01,48,2.10
2015,04,07,01,49,2.10
2015,04,07,01,50,2.10
2015,04,07,01,51,2.10
2015,04,07,01,52,2.10
2015,04,07,01,53,2.10
2015,04,07,01,54,2.10
2015,04,07,01,55,2.10
2015,04,07,01,56,2.10
2015,04,07,01,57,2.10
2015,04,07,01,58,2.10
2015,04,07,01,59,2.10
2015,04,07,02,00,2.10
2015,04,07,02,01,2.10
2015,04,07,02,02,2.10
2015,04,07,02,03,2.10
2015,04,07,02,04,2.10
2015,04,07,02,05,2.10
2015,04,07,02,06,2.10
2015,04,07,02,07,2.00
2015,04,07,02,08,2.00
2015,04,07,02,09,2.00
2015,04,07,02,10,2.00
2015,04,07,02,11,1.90
2015,04,07,02,12,1.90
2015,04,07,02,13,1.90
2015,04,07,02,14,1.90
2015,04,07,02,15,1.90
2015,04,07,02,16,1.90
2015,04,07,02,17,1.90
2015,04,07,02,18,1.80
2015,04,07,02,19,1.80
2015,04,07,02,20,1.80
2015,04,07,02,21,1.80
2015,04,07,02,22,1.80
2015,04,07,02,23,1.80
2015,04,07,02,24,1.80
2015,04,07,02,25,1.80
2015,04,07,02,26,1.80
2015,04,07,02,27,1.80
2015,04,07,02,28,1.80
2015,04,07,02,29,1.80
2015,04,07,02,30,1.80
2015,04,07,02,31,1.80
2015,04,07,02,32,1.80
2015,04,07,02,33,1.80
2015,04,07,02,34,1.80
2015,04,07,02,35,1.70
2015,04,07,02,36,1.70
2015,04,07,02,37,1.70
2015,04,07,02,38,1.70
2015,04,07,02,39,1.70
2015,04,07,02,40,1.70
2015,04,07,02,41,1.60
2015,04,07,02,42,1.60
2015,04,07,02,43,1.60
2015,04,07,02,44,1.60
2015,04,07,02,45,1.60
2015,04,07,02,46,1.60
2015,04,07,02,47,1.60
2015,04,07,02,48,1.60
2015,04,07,02,49,1.60
2015,04,07,02,50,1.60
2015,04,07,02,51,1.60
2015,04,07,02,52,1.60
2015,04,07,02,53,1.60
2015,04,07,02,54,1.50
2015,04,07,02,55,1.50
2015,04,07,02,56,1.50
2015,04,07,02,57,1.50
2015,04,07,02,58,1.40
2015,04,07,02,59,1.40
2015,04,07,03,00,1.40
2015,04,07,03,01,1.40
2015,04,07,03,02,1.40
2015,04,07,03,03,1.30
2015,04,07,03,04,1.30
2015,04,07,03,05,1.30
2015,04,07,03,06,1.30
2015,04,07,03,07,1.30
2015,04,07,03,08,1.30
2015,04,07,03,09,1.30
2015,04,07,03,10,1.30
2015,04,07,03,11,1.30
2015,04,07,03,12,1.30
2015,04,07,03,13,1.30
2015,04,07,03,14,1.30
2015,04,07,03,15,1.20
2015,04,07,03,16,1.20
2015,04,07,03,17,1.20
2015,04,07,03,18,1.20
2015,04,07,03,19,1.20
2015,04,07,03,20,1.20
2015,04,07,03,21,1.30
2015,04,07,03,22,1.30
2015,04,07,03,23,1.30
2015,04,07,03,24,1.30
2015,04,07,03,25,1.30
2015,04,07,03,26,1.20
2015,04,07,03,27,1.20
2015,04,07,03,28,1.20
2015,04,07,03,29,1.20
2015,04,07,03,30,1.20
2015,04,07,03,31,1.20
2015,04,07,03,32,1.20
2015,04,07,03,33,1.20
2015,04,07,03,34,1.20
2015,04,07,03,35,1.20
2015,04,07,03,36,1.10
2015,04,07,03,37,1.10
2015,04,07,03,38,1.10
2015,04,07,03,39,1.10
2015,04,07,03,40,1.10
2015,04,07,03,41,1.10
2015,04,07,03,42,1.10
2015,04,07,03,43,1.10
2015,04,07,03,44,1.00
2015,04,07,03,45,1.00
2015,04,07,03,46,1.00
2015,04,07,03,47,1.00
2015,04,07,03,48,1.00
2015,04,07,03,49,1.00
2015,04,07,03,50,0.90
2015,04,07,03,51,0.90
2015,04,07,03,52,1.00
2015,04,07,03,53,0.90
2015,04,07,03,54,1.00
2015,04,07,03,55,1.00
2015,04,07,03,56,1.00
2015,04,07,03,57,1.00
2015,04,07,03,58,1.00
2015,04,07,03,59,1.00
2015,04,07,04,00,1.00
2015,04,07,04,01,1.00
2015,04,07,04,02,1.00
2015,04,07,04,03,1.00
2015,04,07,04,04,1.00
2015,04,07,04,05,1.00
2015,04,07,04,06,1.00
2015,04,07,04,07,1.00
2015,04,07,04,08,0.90
2015,04,07,04,09,0.90
2015,04,07,04,10,0.90
2015,04,07,04,11,0.80
2015,04,07,04,12,0.80
2015,04,07,04,13,0.80
2015,04,07,04,14,0.80
2015,04,07,04,15,0.80
2015,04,07,04,16,0.80
2015,04,07,04,17,0.70
2015,04,07,04,18,0.70
2015,04,07,04,19,0.70
2015,04,07,04,20,0.70
2015,04,07,04,21,0.70
2015,04,07,04,22,0.70
2015,04,07,04,23,0.70
2015,04,07,04,24,0.70
2015,04,07,04,25,0.70
2015,04,07,04,26,0.80
2015,04,07,04,27,0.80
2015,04,07,04,28,0.80
2015,04,07,04,29,0.80
2015,04,07,04,30,0.80
2015,04,07,04,31,0.80
2015,04,07,04,32,0.80
2015,04,07,04,33,0.80
2015,04,07,04,34,0.80
2015,04,07,04,35,0.80
2015,04,07,04,36,0.80
2015,04,07,04,37,0.80
2015,04,07,04,38,0.80
2015,04,07,04,39,0.80
2015,04,07,04,40,0.80
2015,04,07,04,41,0.80
2015,04,07,04,42,0.80
2015,04,07,04,43,0.80
2015,04,07,04,44,0.70
2015,04,07,04,45,0.70
2015,04,07,04,46,0.70
2015,04,07,04,47,0.70
2015,04,07,04,48,0.70
2015,04,07,04,49,0.70
2015,04,07,04,50,0.60
2015,04,07,04,51,0.60
2015,04,07,04,52,0.60
2015,04,07,04,53,0.60
2015,04,07,04,54,0.60
2015,04,07,04,55,0.60
2015,04,07,04,56,0.60
2015,04,07,04,57,0.60
2015,04,07,04,58,0.60
2015,04,07,04,59,0.60
2015,04,07,05,00,0.60
2015,04,07,05,01,0.60
2015,04,07,05,02,0.60
2015,04,07,05,03,0.50
2015,04,07,05,04,0.60
2015,04,07,05,05,0.60
2015,04,07,05,06,0.60
2015,04,07,05,07,0.60
2015,04,07,05,08,0.60
2015,04,07,05,09,0.50
2015,04,07,05,10,0.50
2015,04,07,05,11,0.50
2015,04,07,05,12,0.50
2015,04,07,05,13,0.50
2015,04,07,05,14,0.50
2015,04,07,05,15,0.50
2015,04,07,05,16,0.50
2015,04,07,05,17,0.50
2015,04,07,05,18,0.50
2015,04,07,05,19,0.50
2015,04,07,05,20,0.50
2015,04,07,05,21,0.50
2015,04,07,05,22,0.50
2015,04,07,05,23,0.50
2015,04,07,05,24,0.50
2015,04,07,05,25,0.40
2015,04,07,05,26,0.40
2015,04,07,05,27,0.40
2015,04,07,05,28,0.40
2015,04,07,05,29,0.40
2015,04,07,05,30,0.30
2015,04,07,05,31,0.30
2015,04,07,05,32,0.30
2015,04,07,05,33,0.30
2015,04,07,05,34,0.20
2015,04,07,05,35,0.20
2015,04,07,05,36,0.20
2015,04,07,05,37,0.20
2015,04,07,05,38,0.20
2015,04,07,05,39,0.20
2015,04,07,05,40,0.20
2015,04,07,05,41,0.10
2015,04,07,05,42,0.10
2015,04,07,05,43,0.10
2015,04,07,05,44,0.10
2015,04,07,05,45,0.10
2015,04,07,05,46,0.10
2015,04,07,05,47,0.10
2015,04,07,05,48,0.10
2015,04,07,05,49,0.10
2015,04,07,05,50,0.10
2015,04,07,05,51,0.10
2015,04,07,05,52,0.10
2015,04,07,05,53,0.10
2015,04,07,05,54,0.10
2015,04,07,05,55,0.10
2015,04,07,05,56,0.10
2015,04,07,05,57,0.10
2015,04,07,05,58,0.10
2015,04,07,05,59,0.10
2015,04,07,06,00,0.10
2015,04,07,06,01,0.10
2015,04,07,06,02,0.10
2015,04,07,06,03,0.10
2015,04,07,06,04,0.10
2015,04,07,06,05,0.10
2015,04,07,06,06,0.10
2015,04,07,06,07,0.10
2015,04,07,06,08,0.00
2015,04,07,06,09,0.00
2015,04,07,06,10,0.00
2015,04,07,06,11,0.00
2015,04,07,06,12,0.00
2015,04,07,06,13,0.00
2015,04,07,06,14,0.00
2015,04,07,06,15,-0.10
2015,04,07,06,16,-0.10
2015,04,07,06,17,-0.10
2015,04,07,06,18,-0.10
2015,04,07,06,19,-0.10
2015,04,07,06,20,-0.10
2015,04,07,06,21,-0.10
2015,04,07,06,22,-0.20
2015,04,07,06,23,-0.20
2015,04,07,06,24,-0.20
2015,04,07,06,25,-0.20
2015,04,07,06,26,-0.20
2015,04,07,06,27,-0.20
2015,04,07,06,28,-0.20
2015,04,07,06,29,-0.20
2015,04,07,06,30,-0.30
2015,04,07,06,31,-0.30
2015,04,07,06,32,-0.30
2015,04,07,06,33,-0.30
2015,04,07,06,34,-0.30
2015,04,07,06,35,-0.30
2015,04,07,06,36,-0.30
2015,04,07,06,37,-0.30
2015,04,07,06,38,-0.30
2015,04,07,06,39,-0.30
2015,04,07,06,40,-0.30
2015,04,07,06,41,-0.30
2015,04,07,06,42,-0.30
2015,04,07,06,43,-0.30
2015,04,07,06,44,-0.30
2015,04,07,06,45,-0.30
2015,04,07,06,46,-0.30
2015,04,07,06,47,-0.30
2015,04,07,06,48,-0.30
2015,04,07,06,49,-0.30
2015,04,07,06,50,-0.30
2015,04,07,06,51,-0.40
2015,04,07,06,52,-0.40
2015,04,07,06,53,-0.40
2015,04,07,06,54,-0.30
2015,04,07,06,55,-0.30
2015,04,07,06,56,-0.30
2015,04,07,06,57,-0.30
2015,04,07,06,58,-0.30
2015,04,07,06,59,-0.30
2015,04,07,07,00,-0.20
2015,04,07,07,01,-0.20
2015,04,07,07,02,-0.20
2015,04,07,07,03,-0.20
2015,04,07,07,04,-0.20
2015,04,07,07,05,-0.20
2015,04,07,07,06,-0.20
2015,04,07,07,07,-0.20
2015,04,07,07,08,-0.20
2015,04,07,07,09,-0.20
2015,04,07,07,10,-0.20
2015,04,07,07,11,-0.20
2015,04,07,07,12,-0.20
2015,04,07,07,13,-0.20
2015,04,07,07,14,-0.20
2015,04,07,07,15,-0.30
2015,04,07,07,16,-0.30
2015,04,07,07,17,-0.30
2015,04,07,07,18,-0.30
2015,04,07,07,19,-0.30
2015,04,07,07,20,-0.30
2015,04,07,07,21,-0.30
2015,04,07,07,22,-0.20
2015,04,07,07,23,-0.20
2015,04,07,07,24,-0.20
2015,04,07,07,25,-0.20
2015,04,07,07,26,-0.10
2015,04,07,07,27,-0.10
2015,04,07,07,28,0.00
2015,04,07,07,29,0.00
2015,04,07,07,30,0.10
2015,04,07,07,31,0.10
2015,04,07,07,32,0.10
2015,04,07,07,33,0.20
2015,04,07,07,34,0.20
2015,04,07,07,35,0.20
2015,04,07,07,36,0.30
2015,04,07,07,37,0.30
2015,04,07,07,38,0.30
2015,04,07,07,39,0.30
2015,04,07,07,40,0.40
2015,04,07,07,41,0.40
2015,04,07,07,42,0.40
2015,04,07,07,43,0.50
2015,04,07,07,44,0.50
2015,04,07,07,45,0.50
2015,04,07,07,46,0.60
2015,04,07,07,47,0.60
2015,04,07,07,48,0.60
2015,04,07,07,49,0.70
2015,04,07,07,50,0.70
2015,04,07,07,51,0.80
2015,04,07,07,52,0.80
2015,04,07,07,53,0.90
2015,04,07,07,54,1.00
2015,04,07,07,55,1.10
2015,04,07,07,56,1.10
2015,04,07,07,57,1.20
2015,04,07,07,58,1.30
2015,04,07,07,59,1.40
2015,04,07,08,00,1.40
2015,04,07,08,01,1.50
2015,04,07,08,02,1.50
2015,04,07,08,03,1.60
2015,04,07,08,04,1.70
2015,04,07,08,05,1.80
2015,04,07,08,06,1.80
2015,04,07,08,07,1.90
2015,04,07,08,08,2.00
2015,04,07,08,09,2.00
2015,04,07,08,10,2.10
2015,04,07,08,11,2.20
2015,04,07,08,12,2.30
2015,04,07,08,13,2.50
2015,04,07,08,14,2.60
2015,04,07,08,15,2.70
2015,04,07,08,16,2.80
2015,04,07,08,17,2.90
2015,04,07,08,18,3.00
2015,04,07,08,19,3.10
2015,04,07,08,20,3.20
2015,04,07,08,21,3.20
2015,04,07,08,22,3.30
2015,04,07,08,23,3.40
2015,04,07,08,24,3.50
2015,04,07,08,25,3.60
2015,04,07,08,26,3.70
2015,04,07,08,27,3.80
2015,04,07,08,28,3.90
2015,04,07,08,29,4.00
2015,04,07,08,30,4.10
2015,04,07,08,31,4.20
2015,04,07,08,32,4.30
2015,04,07,08,33,4.40
2015,04,07,08,34,4.50
2015,04,07,08,35,4.70
2015,04,07,08,36,4.80
2015,04,07,08,37,4.90
2015,04,07,08,38,5.00
2015,04,07,08,39,5.10
2015,04,07,08,40,5.30
2015,04,07,08,41,5.40
2015,04,07,08,42,5.60
2015,04,07,08,43,5.70
2015,04,07,08,44,5.80
2015,04,07,08,45,5.90
2015,04,07,08,46,6.10
2015,04,07,08,47,6.20
2015,04,07,08,48,6.30
2015,04,07,08,49,6.40
2015,04,07,08,50,6.50
2015,04,07,08,51,6.50
2015,04,07,08,52,6.60
2015,04,07,08,53,6.70
2015,04,07,08,54,6.70
2015,04,07,08,55,6.70
2015,04,07,08,56,6.80
2015,04,07,08,57,6.90
2015,04,07,08,58,7.00
2015,04,07,08,59,7.00
2015,04,07,09,00,7.10
2015,04,07,09,01,7.20
2015,04,07,09,02,7.20
2015,04,07,09,03,7.30
2015,04,07,09,04,7.40
2015,04,07,09,05,7.50
2015,04,07,09,06,7.60
2015,04,07,09,07,7.60
2015,04,07,09,08,7.70
2015,04,07,09,09,7.70
2015,04,07,09,10,7.70
2015,04,07,09,11,7.80
2015,04,07,09,12,7.80
2015,04,07,09,13,7.90
2015,04,07,09,14,8.00
2015,04,07,09,15,8.00
2015,04,07,09,16,8.10
2015,04,07,09,17,8.20
2015,04,07,09,18,8.30
2015,04,07,09,19,8.30
2015,04,07,09,20,8.40
2015,04,07,09,21,8.50
2015,04,07,09,22,8.50
2015,04,07,09,23,8.60
2015,04,07,09,24,8.70
2015,04,07,09,25,8.70
2015,04,07,09,26,8.80
2015,04,07,09,27,8.80
2015,04,07,09,28,8.90
2015,04,07,09,29,9.00
2015,04,07,09,30,9.00
2015,04,07,09,31,9.10
2015,04,07,09,32,9.10
2015,04,07,09,33,9.10
2015,04,07,09,34,9.10
2015,04,07,09,35,9.10
2015,04,07,09,36,9.10
2015,04,07,09,37,9.20
2015,04,07,09,38,9.20
2015,04,07,09,39,9.30
2015,04,07,09,40,9.30
2015,04,07,09,41,9.40
2015,04,07,09,42,9.50
2015,04,07,09,43,9.50
2015,04,07,09,44,9.60
2015,04,07,09,45,9.70
2015,04,07,09,46,9.70
2015,04,07,09,47,9.80
2015,04,07,09,48,9.80
2015,04,07,09,49,9.80
2015,04,07,09,50,9.90
2015,04,07,09,51,9.90
2015,04,07,09,52,9.90
2015,04,07,09,53,9.90
2015,04,07,09,54,9.90
2015,04,07,09,55,9.90
2015,04,07,09,56,10.00
2015,04,07,09,57,10.00
2015,04,07,09,58,10.10
2015,04,07,09,59,10.20
2015,04,07,10,00,10.20
2015,04,07,10,01,10.30
2015,04,07,10,02,10.30
2015,04,07,10,03,10.30
2015,04,07,10,04,10.40
2015,04,07,10,05,10.50
2015,04,07,10,06,10.50
2015,04,07,10,07,10.60
2015,04,07,10,08,10.60
2015,04,07,10,09,10.70
2015,04,07,10,10,10.70
2015,04,07,10,11,10.70
2015,04,07,10,12,10.60
2015,04,07,10,13,10.60
2015,04,07,10,14,10.50
2015,04,07,10,15,10.50
2015,04,07,10,16,10.50
2015,04,07,10,17,10.50
2015,04,07,10,18,10.40
2015,04,07,10,19,10.40
2015,04,07,10,20,10.50
2015,04,07,10,21,10.50
2015,04,07,10,22,10.60
2015,04,07,10,23,10.60
2015,04,07,10,24,10.60
2015,04,07,10,25,10.70
2015,04,07,10,26,10.70
2015,04,07,10,27,10.70
2015,04,07,10,28,10.80
2015,04,07,10,29,10.80
2015,04,07,10,30,10.90
2015,04,07,10,31,10.90
2015,04,07,10,32,10.90
2015,04,07,10,33,11.00
2015,04,07,10,34,11.00
2015,04,07,10,35,10.90
2015,04,07,10,36,10.80
2015,04,07,10,37,10.80
2015,04,07,10,38,10.80
2015,04,07,10,39,10.70
2015,04,07,10,40,10.70
2015,04,07,10,41,10.60
2015,04,07,10,42,10.60
2015,04,07,10,43,10.50
2015,04,07,10,44,10.50
2015,04,07,10,45,10.50
2015,04,07,10,46,10.50
2015,04,07,10,47,10.50
2015,04,07,10,48,10.40
2015,04,07,10,49,10.40
2015,04,07,10,50,10.30
2015,04,07,10,51,10.30
2015,04,07,10,52,10.30
2015,04,07,10,53,10.40
2015,04,07,10,54,10.40
2015,04,07,10,55,10.40
2015,04,07,10,56,10.40
2015,04,07,10,57,10.40
2015,04,07,10,58,10.40
2015,04,07,10,59,10.40
2015,04,07,11,00,10.40
2015,04,07,11,01,10.40
2015,04,07,11,02,10.30
2015,04,07,11,03,10.30
2015,04,07,11,04,10.40
2015,04,07,11,05,10.40
2015,04,07,11,06,10.50
2015,04,07,11,07,10.50
2015,04,07,11,08,10.60
2015,04,07,11,09,10.70
2015,04,07,11,10,10.70
2015,04,07,11,11,10.70
2015,04,07,11,12,10.70
2015,04,07,11,13,10.70
2015,04,07,11,14,10.70
2015,04,07,11,15,10.70
2015,04,07,11,16,10.70
2015,04,07,11,17,10.70
2015,04,07,11,18,10.70
2015,04,07,11,19,10.70
2015,04,07,11,20,10.80
2015,04,07,11,21,10.80
2015,04,07,11,22,10.80
2015,04,07,11,23,10.70
2015,04,07,11,24,10.60
2015,04,07,11,25,10.60
2015,04,07,11,26,10.60
2015,04,07,11,27,10.60
2015,04,07,11,28,10.60
2015,04,07,11,29,10.60
2015,04,07,11,30,10.60
2015,04,07,11,31,10.60
2015,04,07,11,32,10.60
2015,04,07,11,33,10.70
2015,04,07,11,34,10.80
2015,04,07,11,35,10.90
2015,04,07,11,36,11.00
2015,04,07,11,37,11.00
2015,04,07,11,38,11.10
2015,04,07,11,39,11.20
2015,04,07,11,40,11.20
2015,04,07,11,41,11.20
2015,04,07,11,42,11.20
2015,04,07,11,43,11.20
2015,04,07,11,44,11.20
2015,04,07,11,45,11.20
2015,04,07,11,46,11.20
2015,04,07,11,47,11.30
2015,04,07,11,48,11.30
2015,04,07,11,49,11.30
2015,04,07,11,50,11.20
2015,04,07,11,51,11.10
2015,04,07,11,52,11.10
2015,04,07,11,53,11.20
2015,04,07,11,54,11.20
2015,04,07,11,55,11.30
2015,04,07,11,56,11.40
2015,04,07,11,57,11.50
2015,04,07,11,58,11.60
2015,04,07,11,59,11.70
2015,04,07,12,00,11.80
2015,04,07,12,01,11.80
2015,04,07,12,02,11.80
2015,04,07,12,03,11.90
2015,04,07,12,04,11.90
2015,04,07,12,05,12.00
2015,04,07,12,06,12.00
2015,04,07,12,07,12.00
2015,04,07,12,08,12.00
2015,04,07,12,09,11.90
2015,04,07,12,10,11.90
2015,04,07,12,11,11.90
2015,04,07,12,12,11.80
2015,04,07,12,13,11.80
2015,04,07,12,14,11.80
2015,04,07,12,15,11.80
2015,04,07,12,16,11.80
2015,04,07,12,17,11.70
2015,04,07,12,18,11.70
2015,04,07,12,19,11.60
2015,04,07,12,20,11.60
2015,04,07,12,21,11.60
2015,04,07,12,22,11.60
2015,04,07,12,23,11.60
2015,04,07,12,24,11.60
2015,04,07,12,25,11.60
2015,04,07,12,26,11.70
2015,04,07,12,27,11.80
2015,04,07,12,28,11.90
2015,04,07,12,29,11.80
2015,04,07,12,30,11.80
2015,04,07,12,31,11.70
2015,04,07,12,32,11.60
2015,04,07,12,33,11.50
2015,04,07,12,34,11.50
2015,04,07,12,35,11.40
2015,04,07,12,36,11.30
2015,04,07,12,37,11.20
2015,04,07,12,38,11.20
2015,04,07,12,39,11.20
2015,04,07,12,40,11.10
2015,04,07,12,41,11.20
2015,04,07,12,42,11.20
2015,04,07,12,43,11.20
2015,04,07,12,44,11.20
2015,04,07,12,45,11.20
2015,04,07,12,46,11.20
2015,04,07,12,47,11.20
2015,04,07,12,48,11.10
2015,04,07,12,49,11.10
2015,04,07,12,50,11.20
2015,04,07,12,51,11.20
2015,04,07,12,52,11.20
2015,04,07,12,53,11.10
2015,04,07,12,54,11.20
2015,04,07,12,55,11.20
2015,04,07,12,56,11.30
2015,04,07,12,57,11.40
2015,04,07,12,58,11.60
2015,04,07,12,59,11.70
2015,04,07,13,00,11.70
2015,04,07,13,01,11.70
2015,04,07,13,02,11.80
2015,04,07,13,03,11.80
2015,04,07,13,04,11.90
2015,04,07,13,05,11.90
2015,04,07,13,06,11.90
2015,04,07,13,07,11.90
2015,04,07,13,08,11.90
2015,04,07,13,09,11.80
2015,04,07,13,10,11.90
2015,04,07,13,11,11.90
2015,04,07,13,12,11.90
2015,04,07,13,13,12.00
2015,04,07,13,14,12.00
2015,04,07,13,15,12.10
2015,04,07,13,16,12.30
2015,04,07,13,17,12.30
2015,04,07,13,18,12.30
2015,04,07,13,19,12.30
2015,04,07,13,20,12.20
2015,04,07,13,21,12.20
2015,04,07,13,22,12.20
2015,04,07,13,23,12.20
2015,04,07,13,24,12.30
2015,04,07,13,25,12.30
2015,04,07,13,26,12.40
2015,04,07,13,27,12.40
2015,04,07,13,28,12.40
2015,04,07,13,29,12.40
2015,04,07,13,30,12.40
2015,04,07,13,31,12.40
2015,04,07,13,32,12.50
2015,04,07,13,33,12.60
2015,04,07,13,34,12.70
2015,04,07,13,35,12.80
2015,04,07,13,36,12.80
2015,04,07,13,37,12.80
2015,04,07,13,38,12.90
2015,04,07,13,39,12.90
2015,04,07,13,40,12.90
2015,04,07,13,41,12.80
2015,04,07,13,42,12.80
2015,04,07,13,43,12.80
2015,04,07,13,44,12.80
2015,04,07,13,45,12.90
2015,04,07,13,46,12.90
2015,04,07,13,47,13.00
2015,04,07,13,48,13.10
2015,04,07,13,49,13.20
2015,04,07,13,50,13.30
2015,04,07,13,51,13.30
2015,04,07,13,52,13.30
2015,04,07,13,53,13.40
2015,04,07,13,54,13.40
2015,04,07,13,55,13.40
2015,04,07,13,56,13.40
2015,04,07,13,57,13.30
2015,04,07,13,58,13.30
2015,04,07,13,59,13.30
2015,04,07,14,00,13.30
2015,04,07,14,01,13.30
2015,04,07,14,02,13.30
2015,04,07,14,03,13.30
2015,04,07,14,04,13.30
2015,04,07,14,05,13.30
2015,04,07,14,06,13.40
2015,04,07,14,07,13.40
2015,04,07,14,08,13.40
2015,04,07,14,09,13.40
2015,04,07,14,10,13.40
2015,04,07,14,11,13.30
2015,04,07,14,12,13.40
2015,04,07,14,13,13.50
2015,04,07,14,14,13.50
2015,04,07,14,15,13.60
2015,04,07,14,16,13.50
2015,04,07,14,17,13.50
2015,04,07,14,18,13.40
2015,04,07,14,19,13.40
2015,04,07,14,20,13.40
2015,04,07,14,21,13.30
2015,04,07,14,22,13.40
2015,04,07,14,23,13.40
2015,04,07,14,24,13.40
2015,04,07,14,25,13.40
2015,04,07,14,26,13.50
2015,04,07,14,27,13.50
2015,04,07,14,28,13.40
2015,04,07,14,29,13.40
2015,04,07,14,30,13.40
2015,04,07,14,31,13.50
2015,04,07,14,32,13.50
2015,04,07,14,33,13.60
2015,04,07,14,34,13.60
2015,04,07,14,35,13.60
2015,04,07,14,36,13.60
2015,04,07,14,37,13.60
2015,04,07,14,38,13.60
2015,04,07,14,39,13.70
2015,04,07,14,40,13.70
2015,04,07,14,41,13.80
2015,04,07,14,42,13.90
2015,04,07,14,43,13.90
2015,04,07,14,44,14.00
2015,04,07,14,45,14.10
2015,04,07,14,46,14.10
2015,04,07,14,47,14.20
2015,04,07,14,48,14.20
2015,04,07,14,49,14.20
2015,04,07,14,50,14.10
2015,04,07,14,51,14.10
2015,04,07,14,52,14.10
2015,04,07,14,53,14.20
2015,04,07,14,54,14.20
2015,04,07,14,55,14.20
2015,04,07,14,56,14.20
2015,04,07,14,57,14.30
2015,04,07,14,58,14.30
2015,04,07,14,59,14.30
2015,04,07,15,00,14.40
2015,04,07,15,01,14.40
2015,04,07,15,02,14.40
2015,04,07,15,03,14.40
2015,04,07,15,04,14.40
2015,04,07,15,05,14.40
2015,04,07,15,06,14.40
2015,04,07,15,07,14.40
2015,04,07,15,08,14.40
2015,04,07,15,09,14.50
2015,04,07,15,10,14.50
2015,04,07,15,11,14.50
2015,04,07,15,12,14.50
2015,04,07,15,13,14.50
2015,04,07,15,14,14.50
2015,04,07,15,15,14.50
2015,04,07,15,16,14.50
2015,04,07,15,17,14.50
2015,04,07,15,18,14.50
2015,04,07,15,19,14.40
2015,04,07,15,20,14.40
2015,04,07,15,21,14.40
2015,04,07,15,22,14.50
2015,04,07,15,23,14.60
2015,04,07,15,24,14.60
2015,04,07,15,25,14.70
2015,04,07,15,26,14.70
2015,04,07,15,27,14.70
2015,04,07,15,28,14.70
2015,04,07,15,29,14.70
2015,04,07,15,30,14.70
2015,04,07,15,31,14.70
2015,04,07,15,32,14.70
2015,04,07,15,33,14.70
2015,04,07,15,34,14.70
2015,04,07,15,35,14.70
2015,04,07,15,36,14.70
2015,04,07,15,37,14.70
2015,04,07,15,38,14.60
2015,04,07,15,39,14.60
2015,04,07,15,40,14.60
2015,04,07,15,41,14.60
2015,04,07,15,42,14.70
2015,04,07,15,43,14.70
2015,04,07,15,44,14.70
2015,04,07,15,45,14.80
2015,04,07,15,46,14.80
2015,04,07,15,47,14.80
2015,04,07,15,48,14.80
2015,04,07,15,49,14.80
2015,04,07,15,50,14.80
2015,04,07,15,51,14.90
2015,04,07,15,52,14.90
2015,04,07,15,53,14.90
2015,04,07,15,54,14.90
2015,04,07,15,55,14.90
2015,04,07,15,56,14.90
2015,04,07,15,57,14.90
2015,04,07,15,58,14.90
2015,04,07,15,59,14.90
2015,04,07,16,00,14.80
2015,04,07,16,01,14.70
2015,04,07,16,02,14.70
2015,04,07,16,03,14.60
2015,04,07,16,04,14.60
2015,04,07,16,05,14.60
2015,04,07,16,06,14.60
2015,04,07,16,07,14.60
2015,04,07,16,08,14.60
2015,04,07,16,09,14.60
2015,04,07,16,10,14.60
2015,04,07,16,11,14.70
2015,04,07,16,12,14.70
2015,04,07,16,13,14.70
2015,04,07,16,14,14.80
2015,04,07,16,15,14.80
2015,04,07,16,16,14.90
2015,04,07,16,17,15.00
2015,04,07,16,18,15.00
2015,04,07,16,19,15.10
2015,04,07,16,20,15.10
2015,04,07,16,21,15.20
2015,04,07,16,22,15.20
2015,04,07,16,23,15.30
2015,04,07,16,24,15.30
2015,04,07,16,25,15.30
2015,04,07,16,26,15.30
2015,04,07,16,27,15.20
2015,04,07,16,28,15.20
2015,04,07,16,29,15.30
2015,04,07,16,30,15.30
2015,04,07,16,31,15.30
2015,04,07,16,32,15.20
2015,04,07,16,33,15.20
2015,04,07,16,34,15.20
2015,04,07,16,35,15.20
2015,04,07,16,36,15.20
2015,04,07,16,37,15.10
2015,04,07,16,38,15.00
2015,04,07,16,39,14.90
2015,04,07,16,40,14.90
2015,04,07,16,41,14.80
2015,04,07,16,42,14.80
2015,04,07,16,43,14.70
2015,04,07,16,44,14.70
2015,04,07,16,45,14.70
2015,04,07,16,46,14.70
2015,04,07,16,47,14.70
2015,04,07,16,48,14.70
2015,04,07,16,49,14.70
2015,04,07,16,50,14.70
2015,04,07,16,51,14.60
2015,04,07,16,52,14.60
2015,04,07,16,53,14.60
2015,04,07,16,54,14.60
2015,04,07,16,55,14.60
2015,04,07,16,56,14.60
2015,04,07,16,57,14.60
2015,04,07,16,58,14.60
2015,04,07,16,59,14.60
2015,04,07,17,00,14.60
2015,04,07,17,01,14.60
2015,04,07,17,02,14.60
2015,04,07,17,03,14.60
2015,04,07,17,04,14.60
2015,04,07,17,05,14.60
2015,04,07,17,06,14.60
2015,04,07,17,07,14.60
2015,04,07,17,08,14.60
2015,04,07,17,09,14.60
2015,04,07,17,10,14.70
2015,04,07,17,11,14.70
2015,04,07,17,12,14.70
2015,04,07,17,13,14.70
2015,04,07,17,14,14.70
2015,04,07,17,15,14.70
2015,04,07,17,16,14.70
2015,04,07,17,17,14.70
2015,04,07,17,18,14.70
2015,04,07,17,19,14.70
2015,04,07,17,20,14.80
2015,04,07,17,21,14.80
2015,04,07,17,22,14.80
2015,04,07,17,23,14.80
2015,04,07,17,24,14.80
2015,04,07,17,25,14.80
2015,04,07,17,26,14.80
2015,04,07,17,27,14.80
2015,04,07,17,28,14.80
2015,04,07,17,29,14.80
2015,04,07,17,30,14.80
2015,04,07,17,31,14.80
2015,04,07,17,32,14.80
2015,04,07,17,33,14.80
2015,04,07,17,34,14.80
2015,04,07,17,35,14.80
2015,04,07,17,36,14.80
2015,04,07,17,37,14.80
2015,04,07,17,38,14.80
2015,04,07,17,39,14.80
2015,04,07,17,40,14.80
2015,04,07,17,41,14.80
2015,04,07,17,42,14.80